Fort Benning, AL

8:24 PM CDT on July 26, 2017 (GMT -0500)
Lawson Army Air Field

Weather History for KLSF - April, 2013

Change the Weather History Date:

Wednesday, April 17, 2013

  Actual Average Record
Temperature  
Mean Temperature 72 °F -  
Max Temperature 86 °F 74 °F 87 °F (2002)
Min Temperature 60 °F 48 °F 35 °F (2008)
Cooling Degree Days 8    
Growing Degree Days 22 (Base 50)    
Moisture  
Dew Point 62 °F    
Average Humidity 89    
Maximum Humidity 100    
Minimum Humidity 50    
Precipitation  
Precipitation 0.00 in - - ()
Sea Level Pressure  
Sea Level Pressure 30.15 in    
Wind  
Wind Speed 1 mph (SSE)    
Max Wind Speed 8 mph    
Max Gust Speed -    
Visibility 6 miles    
Events Fog    
Averages and records for this station are not official NWS values.
T = Trace of Precipitation, MM = Missing Value Source: NWS Daily Summary

Daily Weather History Graph

Daily Weather History Graph

Search for Another Location

Airport or City:

Trip Planner

Search our weather history database for the weather conditions in past years. The results will help you decide how hot, cold, wet, or windy it might be!

Date:

Astronomy

Apr. 17, 2013 Rise Set
Actual Time 7:08 AM EDT 8:11 PM EDT
Civil Twilight 6:42 AM EDT 8:36 PM EDT
Nautical Twilight 6:12 AM EDT 9:06 PM EDT
Astronomical Twilight 5:41 AM EDT 9:37 PM EDT
Moon 12:27 PM EDT (4/17) 1:41 AM EDT (4/17)
Length of Visible Light 13h 53m
Length of Day
13h 03m
Waxing Crescent, 42% of the Moon is Illuminated
Apr 17
Waxing Crescent
Apr 18
First Quarter
Apr 25
Full
May 2
Last Quarter
May 9
New

Hourly Weather History & Observations

Time (EDT) Temp. Heat Index Dew Point Humidity Pressure Visibility Wind Dir Wind Speed Gust Speed Precip Events Conditions
12:42 AM 64.4 °F - 62.6 °F 94% 30.16 in 7.0 mi SW 1.2 mph - N/A   Scattered Clouds
12:55 AM 62.6 °F - 62.6 °F 100% 30.16 in 4.0 mi Calm Calm - N/A   Partly Cloudy
1:40 AM 62.6 °F - 62.6 °F 100% 30.15 in 4.0 mi Calm Calm - N/A   Clear
1:45 AM 62.6 °F - 62.6 °F 100% 30.15 in 10.0 mi Calm Calm - N/A   Clear
1:58 AM 63.0 °F - 62.8 °F 99% 30.16 in 10.0 mi Variable 1.2 mph - N/A   Clear
2:18 AM 60.8 °F - 60.8 °F 100% 30.15 in 2.5 mi WSW 2.3 mph - N/A   Clear
2:23 AM 62.6 °F - 60.8 °F 94% 30.15 in 1.0 mi Calm Calm - N/A   Clear
2:28 AM 62.6 °F - 60.8 °F 94% 30.16 in 0.8 mi West 1.2 mph - N/A   Clear
2:38 AM 62.6 °F - 60.8 °F 94% 30.16 in 1.0 mi Calm Calm - N/A   Clear
2:43 AM 60.8 °F - 60.8 °F 100% 30.16 in 4.0 mi Calm Calm - N/A   Clear
2:53 AM 60.8 °F - 60.8 °F 100% 30.16 in 2.5 mi Calm Calm - N/A   Clear
2:58 AM 60.4 °F - 60.3 °F 99% 30.17 in 1.5 mi Calm Calm - N/A   Clear
3:03 AM 60.8 °F - 60.8 °F 100% 30.16 in 1.8 mi Calm Calm - N/A   Clear
3:08 AM 60.8 °F - 60.8 °F 100% 30.16 in 4.0 mi Calm Calm - N/A   Partly Cloudy
3:23 AM 60.8 °F - 60.8 °F 100% 30.16 in 2.0 mi Calm Calm - N/A   Mostly Cloudy
3:28 AM 60.8 °F - 60.8 °F 100% 30.16 in 0.8 mi Calm Calm - N/A   Mostly Cloudy
3:33 AM 60.8 °F - 60.8 °F 100% 30.15 in 0.5 mi Calm Calm - N/A Fog Fog
3:38 AM 60.8 °F - 60.8 °F 100% 30.15 in 0.8 mi Calm Calm - N/A   Mostly Cloudy
3:43 AM 60.8 °F - 60.8 °F 100% 30.15 in 1.2 mi Calm Calm - N/A   Overcast
3:48 AM 60.8 °F - 60.8 °F 100% 30.15 in 2.5 mi Calm Calm - N/A   Overcast
3:53 AM 62.6 °F - 60.8 °F 94% 30.15 in 3.0 mi Calm Calm - N/A   Overcast
3:55 AM 62.1 °F - 61.7 °F 99% 30.15 in 3.0 mi Calm Calm - N/A   Overcast
4:58 AM 62.6 °F - 62.2 °F 99% 30.17 in 10.0 mi Calm Calm - N/A   Overcast
5:18 AM 62.6 °F - 62.6 °F 100% 30.16 in 9.0 mi Calm Calm - N/A   Partly Cloudy
5:23 AM 62.6 °F - 62.6 °F 100% 30.16 in 10.0 mi Calm Calm - N/A   Partly Cloudy
5:33 AM 62.6 °F - 62.6 °F 100% 30.15 in 5.0 mi East 1.2 mph - N/A   Clear
5:38 AM 62.6 °F - 62.6 °F 100% 30.15 in 1.0 mi Calm Calm - N/A   Clear
5:43 AM 62.6 °F - 62.6 °F 100% 30.15 in 0.8 mi Calm Calm - N/A   Clear
5:48 AM 62.6 °F - 62.6 °F 100% 30.15 in 1.2 mi Calm Calm - N/A   Clear
5:58 AM 62.6 °F - 62.6 °F 100% 30.16 in 1.2 mi Calm Calm - N/A   Scattered Clouds
6:03 AM 62.6 °F - 62.6 °F 100% 30.16 in 10.0 mi Variable 1.2 mph - N/A   Partly Cloudy
6:18 AM 62.6 °F - 60.8 °F 94% 30.16 in 9.0 mi WNW 2.3 mph - N/A   Partly Cloudy
6:38 AM 60.8 °F - 60.8 °F 100% 30.17 in 5.0 mi NW 1.2 mph - N/A   Clear
6:48 AM 62.6 °F - 60.8 °F 94% 30.17 in 6.0 mi NNW 1.2 mph - N/A   Clear
6:53 AM 62.6 °F - 62.6 °F 100% 30.17 in 10.0 mi North 3.5 mph - N/A   Clear
6:58 AM 62.1 °F - 61.7 °F 99% 30.18 in 10.0 mi North 3.5 mph - N/A   Clear
7:58 AM 62.8 °F - 62.4 °F 99% 30.20 in 10.0 mi NW 1.2 mph - N/A   Clear
8:58 AM 67.5 °F - 64.9 °F 92% 30.21 in 10.0 mi East 4.6 mph - N/A   Clear
9:58 AM 72.3 °F - 64.4 °F 76% 30.21 in 10.0 mi SSE 5.8 mph - N/A   Clear
10:58 AM 74.7 °F - 64.4 °F 70% 30.20 in 10.0 mi Variable 2.3 mph - N/A   Clear
11:58 AM 78.4 °F - 63.5 °F 60% 30.19 in 10.0 mi SE 8.1 mph - N/A   Clear
12:58 PM 81.1 °F 82.8 °F 64.8 °F 57% 30.17 in 10.0 mi Variable 5.8 mph - N/A   Partly Cloudy
1:58 PM 82.0 °F 83.9 °F 65.5 °F 57% 30.14 in 10.0 mi South 4.6 mph - N/A   Partly Cloudy
2:58 PM 84.9 °F 87.1 °F 66.0 °F 53% 30.13 in 10.0 mi SE 6.9 mph - N/A   Mostly Cloudy
3:58 PM 85.5 °F 87.4 °F 65.3 °F 51% 30.10 in 10.0 mi SE 8.1 mph - N/A   Scattered Clouds
4:58 PM 85.8 °F 87.6 °F 65.1 °F 50% 30.09 in 10.0 mi SSE 5.8 mph - N/A   Clear
5:58 PM 84.7 °F 86.3 °F 64.6 °F 51% 30.08 in 10.0 mi South 5.8 mph - N/A   Clear
6:58 PM 80.4 °F 82.0 °F 63.7 °F 57% 30.08 in 10.0 mi SSE 8.1 mph - N/A   Mostly Cloudy
7:58 PM 74.7 °F - 64.8 °F 71% 30.09 in 10.0 mi SSE 5.8 mph - N/A   Clear
8:58 PM 70.2 °F - 64.8 °F 83% 30.08 in 10.0 mi SE 5.8 mph - N/A   Clear
9:55 PM 68.0 °F - 64.4 °F 88% 30.09 in 10.0 mi SSE 5.8 mph - N/A   Clear
10:25 PM 73.4 °F - 62.6 °F 69% 30.09 in 10.0 mi SE 8.1 mph - N/A   Mostly Cloudy
10:55 PM 71.6 °F - 62.6 °F 73% 30.09 in 10.0 mi SSW 3.5 mph - N/A   Mostly Cloudy
11:55 PM 71.6 °F - 62.6 °F 73% 30.09 in 10.0 mi ESE 3.5 mph - N/A   Partly Cloudy